{"data":{"norad_id":65148,"epoch":"2026-09-21T12:53:10.482432Z","epoch_age_seconds":75729,"freshness":"FRESH","line1":"1 65148U 25171S   26264.53692688  .00000670  00000+0  11690-3 0  9999","line2":"2 65148  51.9019  22.0968 0000405 122.2682 237.8320 14.79932255 61740","mean_motion":14.79932255,"eccentricity":4.05e-5,"inclination_deg":51.9019,"raan_deg":22.0968,"arg_perigee_deg":122.2682,"mean_anomaly_deg":237.832,"bstar":0.0001169,"rev_number":6174,"period_min":97.301751153467,"perigee_km":629.25417011964,"apogee_km":629.8217917931,"semimajor_km":7007.6749809564,"source":"CELESTRAK","updated_at":"2026-09-22T09:00:30.156104Z"}}